Overview Statistics Trail Chart Weather Telemetry Raw packets
 

This is the latest recevied weather packets stored in our database for station/object IR2UAZ-13. If no packets are shown the sender has not sent any weather packets the latest 10 day(s).

<< 16 17 18 19 20 21 22 >>
Time Temp. Humidity Pressure Rain* Wind** Luminosity Snow
1788024500 19.44° C 67% 1027.1 hPa - - - -
1788023299 20° C 66% 1027.1 hPa - - - -
1788022099 20.56° C 67% 1027.2 hPa - - - -
1788020899 19.44° C 69% 1027.3 hPa - - - -
1788019698 18.89° C 70% 1027.5 hPa - - - -
1788018498 18.89° C 71% 1027.4 hPa - - - -
1788017298 18.33° C 71% 1027.4 hPa - - - -
1788016097 18.33° C 71% 1027.5 hPa - - - -
1788014897 18.33° C 71% 1027.4 hPa - - - -
1788013697 18.33° C 71% 1027.5 hPa - - - -
1788012497 18.33° C 70% 1027.5 hPa - - - -
1788011296 18.33° C 70% 1027.6 hPa - - - -
1788010096 18.33° C 70% 1027.6 hPa - - - -
1788008895 18.33° C 70% 1027.6 hPa - - - -
1788007695 17.78° C 70% 1027.6 hPa - - - -
1788006495 17.78° C 70% 1027.6 hPa - - - -
1788005295 17.78° C 71% 1027.6 hPa - - - -
1788004094 17.78° C 71% 1027.8 hPa - - - -
1788002894 17.78° C 71% 1027.7 hPa - - - -
1788000897 17.78° C 71% 1027.8 hPa - - - -
1787999697 17.78° C 71% 1027.8 hPa - - - -
1787998496 17.78° C 71% 1027.7 hPa - - - -
1787997296 17.78° C 71% 1027.6 hPa - - - -
1787996096 17.78° C 71% 1027.6 hPa - - - -
1787994895 17.78° C 71% 1027.5 hPa - - - -

* Rain since midnight (hover to see other rain measurements)
** Current wind speed in m/s (hover to see current wind gust speed)